When you browse on this site, cookies collect data to enhance your experience and personalize the content and advertising you see.
Visit our Privacy Policy to learn more. By continuing to use the site, you agree to this use of cookies and data.
  • In Switzerland
  • List of Countries
  • For 7 days
  • Water Temperature
  • Satellite Maps
  • Weather Map
  • Weather Widgets
  • user-avatar
    Login

    Hourly Weather Limerick

    Today, 19 December, Wednesday

    Time Temperature Precipitation Wind Pressure Humidity
    00:00 +4°C° 0 mm 4 mps 745 mmHg 89%
    01:00 +4°C° 0 mm 4 mps 745 mmHg 88%
    02:00 +4°C° 0 mm 4 mps 745 mmHg 88%
    03:00 +4°C° 0 mm 4 mps 745 mmHg 87%
    04:00 +3°C° 0 mm 5 mps 745 mmHg 87%
    05:00 +5°C° 0 mm 5 mps 745 mmHg 86%
    06:00 +5°C° 0.1 mm 5 mps 745 mmHg 87%
    07:00 +5°C° 0.1 mm 5 mps 745 mmHg 87%
    08:00 +5°C° 0.1 mm 5 mps 745 mmHg 87%
    09:00 +6°C° 0.3 mm 5 mps 745 mmHg 86%
    10:00 +6°C° 0.3 mm 5 mps 745 mmHg 85%
    11:00 +7°C° 0.3 mm 6 mps 745 mmHg 84%
    12:00 +7°C° 0.4 mm 6 mps 745 mmHg 84%
    13:00 +7°C° 0.4 mm 6 mps 745 mmHg 83%
    14:00 +7°C° 0.4 mm 6 mps 744 mmHg 83%
    15:00 +7°C° 0.4 mm 6 mps 745 mmHg 85%
    16:00 +5°C° 0.4 mm 6 mps 745 mmHg 86%
    17:00 +5°C° 0.4 mm 6 mps 745 mmHg 87%
    18:00 +5°C° 0.2 mm 6 mps 745 mmHg 87%
    19:00 +5°C° 0.2 mm 6 mps 746 mmHg 87%
    20:00 +5°C° 0.2 mm 6 mps 746 mmHg 87%
    21:00 +5°C° 0.1 mm 6 mps 747 mmHg 87%
    22:00 +5°C° 0.1 mm 6 mps 747 mmHg 87%
    23:00 +5°C° 0.1 mm 6 mps 748 mmHg 88%

    Tomorrow, 20 December, Thursday

    Time Temperature Precipitation Wind Pressure Humidity
    00:00 +6°C° 0 mm 5 mps 748 mmHg 88%
    01:00 +6°C° 0 mm 5 mps 749 mmHg 88%
    02:00 +5°C° 0 mm 5 mps 749 mmHg 88%
    03:00 +5°C° 0.1 mm 5 mps 749 mmHg 88%
    04:00 +5°C° 0.1 mm 5 mps 750 mmHg 87%
    05:00 +5°C° 0.1 mm 5 mps 750 mmHg 87%
    06:00 +6°C° 0.1 mm 5 mps 750 mmHg 86%
    07:00 +6°C° 0.1 mm 5 mps 750 mmHg 86%
    08:00 +6°C° 0.1 mm 5 mps 751 mmHg 86%
    09:00 +5°C° 0.1 mm 6 mps 751 mmHg 84%
    10:00 +7°C° 0.1 mm 6 mps 751 mmHg 82%
    11:00 +7°C° 0.1 mm 6 mps 751 mmHg 81%
    12:00 +7°C° 0.1 mm 6 mps 751 mmHg 81%
    13:00 +7°C° 0.1 mm 5 mps 751 mmHg 82%
    14:00 +7°C° 0.1 mm 5 mps 750 mmHg 82%
    15:00 +6°C° 0 mm 4 mps 750 mmHg 84%
    16:00 +6°C° 0 mm 4 mps 750 mmHg 87%
    17:00 +5°C° 0 mm 3 mps 750 mmHg 89%
    18:00 +5°C° 0.7 mm 3 mps 749 mmHg 91%
    19:00 +5°C° 0.7 mm 3 mps 747 mmHg 93%
    20:00 +5°C° 0.7 mm 3 mps 746 mmHg 95%
    21:00 +6°C° 1.4 mm 4 mps 745 mmHg 95%
    22:00 +7°C° 1.4 mm 4 mps 744 mmHg 95%
    23:00 +8°C° 1.4 mm 5 mps 743 mmHg 95%

    Day after tomorrow, 21 December, Friday

    Time Temperature Precipitation Wind Pressure Humidity
    00:00 +8°C° 0.1 mm 6 mps 743 mmHg 91%
    01:00 +7°C° 0.1 mm 8 mps 744 mmHg 87%
    02:00 +7°C° 0.1 mm 9 mps 744 mmHg 83%
    03:00 +7°C° 0 mm 9 mps 744 mmHg 82%
    04:00 +7°C° 0 mm 9 mps 745 mmHg 80%
    05:00 +6°C° 0 mm 8 mps 745 mmHg 79%
    06:00 +6°C° 0 mm 8 mps 746 mmHg 79%
    07:00 +6°C° 0 mm 7 mps 746 mmHg 79%
    08:00 +6°C° 0 mm 7 mps 747 mmHg 79%
    09:00 +6°C° 0 mm 7 mps 748 mmHg 79%
    10:00 +8°C° 0 mm 7 mps 748 mmHg 78%
    11:00 +8°C° 0 mm 7 mps 749 mmHg 77%
    12:00 +8°C° 0.4 mm 6 mps 748 mmHg 81%
    13:00 +8°C° 0.4 mm 5 mps 748 mmHg 85%
    14:00 +7°C° 0.4 mm 4 mps 748 mmHg 89%
    15:00 +7°C° 1.1 mm 4 mps 748 mmHg 91%
    16:00 +7°C° 1.1 mm 4 mps 748 mmHg 92%
    17:00 +7°C° 1.1 mm 4 mps 748 mmHg 94%
    18:00 +7°C° 0.1 mm 4 mps 749 mmHg 93%
    19:00 +6°C° 0.1 mm 5 mps 750 mmHg 92%
    20:00 +6°C° 0.1 mm 5 mps 751 mmHg 91%
    21:00 +6°C° 0 mm 5 mps 752 mmHg 90%
    22:00 +6°C° 0 mm 5 mps 753 mmHg 90%
    23:00 +6°C° 0 mm 5 mps 754 mmHg 89%

    22 December, Saturday

    Time Temperature Precipitation Wind Pressure Humidity
    00:00 +6°C° 0 mm 4 mps 754 mmHg 90%
    01:00 +5°C° 0 mm 4 mps 754 mmHg 90%
    02:00 +5°C° 0 mm 4 mps 755 mmHg 90%
    03:00 +5°C° 0 mm 4 mps 755 mmHg 90%
    04:00 +5°C° 0 mm 4 mps 756 mmHg 90%
    05:00 +5°C° 0 mm 4 mps 756 mmHg 90%
    06:00 +5°C° 0 mm 4 mps 757 mmHg 90%
    07:00 +5°C° 0 mm 4 mps 757 mmHg 89%
    08:00 +5°C° 0 mm 4 mps 758 mmHg 89%
    09:00 +6°C° 0 mm 4 mps 759 mmHg 86%
    10:00 +6°C° 0 mm 5 mps 759 mmHg 84%
    11:00 +7°C° 0 mm 5 mps 760 mmHg 81%
    12:00 +7°C° 0 mm 4 mps 760 mmHg 81%
    13:00 +7°C° 0 mm 4 mps 760 mmHg 82%
    14:00 +7°C° 0 mm 4 mps 760 mmHg 82%
    15:00 +7°C° 0 mm 3 mps 761 mmHg 85%
    16:00 +5°C° 0 mm 3 mps 761 mmHg 88%
    17:00 +5°C° 0 mm 3 mps 762 mmHg 91%
    18:00 +6°C° 0 mm 2 mps 762 mmHg 92%
    19:00 +5°C° 0 mm 2 mps 762 mmHg 93%
    20:00 +5°C° 0 mm 2 mps 763 mmHg 93%
    21:00 +5°C° 0 mm 2 mps 763 mmHg 94%
    22:00 +5°C° 0 mm 2 mps 763 mmHg 94%
    23:00 +5°C° 0 mm 2 mps 763 mmHg 94%

    23 December, Sunday

    Time Temperature Precipitation Wind Pressure Humidity
    00:00 +6°C° 0 mm 1 mps 764 mmHg 94%
    01:00 +5°C° 0 mm 1 mps 764 mmHg 94%
    02:00 +5°C° 0 mm 1 mps 764 mmHg 94%
    03:00 +5°C° 0 mm 1 mps 764 mmHg 93%
    04:00 +5°C° 0 mm 1 mps 764 mmHg 93%
    05:00 +5°C° 0 mm 1 mps 764 mmHg 93%
    06:00 +5°C° 0 mm 1 mps 765 mmHg 93%
    07:00 +5°C° 0 mm 1 mps 765 mmHg 93%
    08:00 +4°C° 0 mm 2 mps 766 mmHg 93%
    09:00 +5°C° 0.1 mm 2 mps 766 mmHg 92%
    10:00 +6°C° 0.1 mm 2 mps 766 mmHg 90%
    11:00 +7°C° 0.1 mm 2 mps 766 mmHg 89%
    12:00 +8°C° 0.5 mm 3 mps 766 mmHg 90%
    13:00 +8°C° 0.5 mm 3 mps 766 mmHg 92%
    14:00 +8°C° 0.5 mm 3 mps 765 mmHg 93%
    15:00 +8°C° 0.4 mm 3 mps 766 mmHg 94%
    16:00 +7°C° 0.4 mm 4 mps 766 mmHg 95%
    17:00 +7°C° 0.4 mm 4 mps 766 mmHg 95%
    18:00 +7°C° 0.2 mm 4 mps 766 mmHg 95%
    19:00 +8°C° 0.2 mm 4 mps 766 mmHg 95%
    20:00 +8°C° 0.2 mm 4 mps 766 mmHg 95%
    21:00 +8°C° 0.9 mm 4 mps 766 mmHg 95%
    22:00 +8°C° 0.9 mm 4 mps 766 mmHg 95%
    23:00 +8°C° 0.9 mm 4 mps 766 mmHg 96%

    24 December, Monday

    Time Temperature Precipitation Wind Pressure Humidity
    00:00 +9°C° 0.4 mm 3 mps 766 mmHg 96%
    01:00 +9°C° 0.4 mm 3 mps 766 mmHg 96%
    02:00 +9°C° 0.4 mm 3 mps 766 mmHg 97%
    03:00 +9°C° 0.2 mm 2 mps 766 mmHg 97%
    04:00 +9°C° 0.2 mm 2 mps 766 mmHg 97%
    05:00 +10°C° 0.2 mm 2 mps 766 mmHg 98%
    06:00 +10°C° 0 mm 2 mps 767 mmHg 98%
    07:00 +10°C° 0 mm 2 mps 767 mmHg 97%
    08:00 +10°C° 0 mm 2 mps 767 mmHg 97%
    09:00 +12°C° 0 mm 2 mps 768 mmHg 96%
    10:00 +12°C° 0 mm 2 mps 768 mmHg 95%
    11:00 +13°C° 0 mm 2 mps 768 mmHg 94%
    12:00 +13°C° 0 mm 2 mps 768 mmHg 94%
    13:00 +13°C° 0 mm 2 mps 768 mmHg 94%
    14:00 +13°C° 0 mm 1 mps 768 mmHg 94%
    15:00 +12°C° 0 mm 1 mps 768 mmHg 95%
    16:00 +11°C° 0 mm 1 mps 768 mmHg 95%
    17:00 +10°C° 0 mm 1 mps 768 mmHg 96%
    18:00 +10°C° 0 mm 1 mps 768 mmHg 96%
    19:00 +10°C° 0 mm 1 mps 769 mmHg 95%
    20:00 +10°C° 0 mm 1 mps 769 mmHg 95%
    21:00 +10°C° 0 mm 1 mps 769 mmHg 95%
    22:00 +10°C° 0 mm 1 mps 769 mmHg 95%
    23:00 +9°C° 0 mm 1 mps 769 mmHg 95%
    Show more